| time (UTC) | temp C | wind direction | speed KPH | gust KPH | rain 1hr cm | rain 24hr cm | rain mn cm | humidity % | barometer mb |
| 20260906021518 | 22 | 24 | 8.0 | 17.7 | 0.00 | 0.00 | 0.00 | 86 | 1014.0 |
| 20260906020052 | 22 | 355 | 11.3 | 19.3 | 0.00 | 0.00 | 0.00 | 87 | 1014.0 |
| 20260906014512 | 22 | 57 | 8.0 | 14.5 | 0.00 | 0.00 | 0.00 | 89 | 1013.8 |
| 20260906013034 | 23 | 44 | 6.4 | 12.9 | 0.00 | 0.00 | 0.00 | 88 | 1013.6 |
| 20260906011546 | 23 | 69 | 6.4 | 12.9 | 0.00 | 0.00 | 0.00 | 87 | 1013.6 |
| 20260906010003 | 23 | 34 | 4.8 | 9.7 | 0.00 | 0.00 | 0.00 | 87 | 1013.5 |
| 20260906004524 | 23 | 5 | 4.8 | 8.0 | 0.00 | 0.00 | 0.00 | 86 | 1013.2 |
| 20260906003044 | 24 | 44 | 3.2 | 8.0 | 0.00 | 0.00 | 0.00 | 84 | 1013.0 |
| 20260906001556 | 24 | 67 | 6.4 | 12.9 | 0.00 | 0.00 | 0.00 | 83 | 1012.7 |
| 20260906000002 | 25 | 70 | 6.4 | 12.9 | 0.00 | 0.00 | 0.00 | 82 | 1012.7 |
| 20260905234533 | 25 | 44 | 4.8 | 11.3 | 0.00 | 0.00 | 0.00 | 81 | 1012.8 |
| 20260905233042 | 26 | 54 | 11.3 | 20.9 | 0.00 | 0.00 | 0.00 | 79 | 1012.7 |
| 20260905231553 | 26 | 40 | 11.3 | 20.9 | 0.00 | 0.00 | 0.00 | 79 | 1012.6 |
| 20260905230130 | 26 | 51 | 12.9 | 22.5 | 0.00 | 0.00 | 0.00 | 77 | 1012.3 |
| 20260905224518 | 27 | 60 | 14.5 | 24.1 | 0.00 | 0.00 | 0.00 | 76 | 1012.2 |
| 20260905223036 | 27 | 51 | 14.5 | 24.1 | 0.00 | 0.00 | 0.00 | 75 | 1012.0 |
| 20260905221602 | 28 | 355 | 9.7 | 19.3 | 0.00 | 0.00 | 0.00 | 76 | 1012.0 |
| 20260905220026 | 28 | 65 | 9.7 | 20.9 | 0.00 | 0.00 | 0.00 | 76 | 1012.0 |
| 20260905214548 | 27 | 15 | 9.7 | 22.5 | 0.00 | 0.00 | 0.00 | 75 | 1011.9 |
| 20260905213004 | 28 | 63 | 11.3 | 24.1 | 0.00 | 0.00 | 0.00 | 73 | 1011.6 |
| 20260905211531 | 29 | 78 | 12.9 | 24.1 | 0.00 | 0.00 | 0.00 | 73 | 1011.5 |
| 20260905210052 | 29 | 59 | 11.3 | 24.1 | 0.00 | 0.00 | 0.00 | 72 | 1011.6 |
| 20260905204504 | 30 | 17 | 11.3 | 22.5 | 0.00 | 0.00 | 0.00 | 71 | 1011.5 |
| 20260905203034 | 30 | 71 | 11.3 | 22.5 | 0.00 | 0.00 | 0.00 | 71 | 1011.5 |
| 20260905201553 | 30 | 44 | 11.3 | 19.3 | 0.00 | 0.00 | 0.00 | 70 | 1011.5 |
| 20260905200021 | 31 | 351 | 11.3 | 17.7 | 0.00 | 0.00 | 0.00 | 69 | 1011.5 |
| 20260905194540 | 31 | 25 | 6.4 | 12.9 | 0.00 | 0.00 | 0.00 | 70 | 1011.5 |
| 20260905193110 | 30 | 13 | 9.7 | 16.1 | 0.00 | 0.00 | 0.00 | 71 | 1011.6 |
| 20260905191511 | 31 | 51 | 6.4 | 17.7 | 0.00 | 0.00 | 0.00 | 72 | 1011.6 |
| 20260905190034 | 30 | 32 | 8.0 | 14.5 | 0.00 | 0.00 | 0.00 | 74 | 1011.7 |
| 20260905184600 | 31 | 34 | 6.4 | 17.7 | 0.00 | 0.00 | 0.00 | 73 | 1011.8 |
| 20260905183007 | 31 | 39 | 4.8 | 11.3 | 0.00 | 0.00 | 0.00 | 73 | 1011.9 |
| 20260905181539 | 31 | 14 | 4.8 | 14.5 | 0.00 | 0.00 | 0.00 | 73 | 1012.0 |
| 20260905174528 | 31 | 44 | 6.4 | 14.5 | 0.00 | 0.00 | 0.00 | 73 | 1012.0 |
| 20260905173101 | 31 | 38 | 6.4 | 17.7 | 0.00 | 0.00 | 0.00 | 75 | 1012.0 |
| 20260905171533 | 31 | 24 | 6.4 | 11.3 | 0.00 | 0.00 | 0.00 | 75 | 1012.1 |
| 20260905170054 | 31 | 57 | 9.7 | 14.5 | 0.00 | 0.00 | 0.00 | 76 | 1012.2 |
| 20260905164517 | 31 | 5 | 8.0 | 14.5 | 0.00 | 0.00 | 0.00 | 75 | 1012.3 |
| 20260905163042 | 31 | 37 | 8.0 | 12.9 | 0.00 | 0.00 | 0.00 | 76 | 1012.2 |
| 20260905161502 | 31 | 14 | 4.8 | 11.3 | 0.00 | 0.00 | 0.00 | 77 | 1012.2 |
| 20260905160038 | 31 | 36 | 4.8 | 11.3 | 0.00 | 0.00 | 0.00 | 79 | 1012.1 |
| 20260905154502 | 31 | 73 | 4.8 | 9.7 | 0.00 | 0.00 | 0.00 | 78 | 1012.1 |
| 20260905153029 | 30 | 5 | 3.2 | 9.7 | 0.00 | 0.00 | 0.00 | 79 | 1012.0 |
| 20260905151552 | 30 | 347 | 3.2 | 9.7 | 0.00 | 0.00 | 0.00 | 79 | 1011.9 |
| 20260905150002 | 30 | 17 | 4.8 | 11.3 | 0.00 | 0.00 | 0.00 | 80 | 1011.9 |
| 20260905144533 | 29 | 31 | 4.8 | 9.7 | 0.00 | 0.00 | 0.00 | 81 | 1011.8 |
| 20260905143058 | 29 | 31 | 3.2 | 9.7 | 0.00 | 0.00 | 0.00 | 82 | 1011.7 |
| 20260905141524 | 28 | 45 | 0.0 | 8.0 | 0.00 | 0.00 | 0.00 | 85 | 1011.6 |
| 20260905140050 | 28 | 279 | 1.6 | 6.4 | 0.00 | 0.00 | 0.00 | 89 | 1011.7 |
| 20260905134508 | 27 | 279 | 0.0 | 4.8 | 0.00 | 0.00 | 0.00 | 91 | 1012.1 |
| 20260905133042 | 26 | 275 | 1.6 | 3.2 | 0.00 | 0.00 | 0.00 | 93 | 1011.9 |
| 20260905131552 | 26 | 254 | 1.6 | 6.4 | 0.00 | 0.00 | 0.00 | 94 | 1011.7 |
| 20260905130026 | 25 | 238 | 4.8 | 8.0 | 0.00 | 0.00 | 0.00 | 95 | 1011.4 |
| 20260905124544 | 24 | 221 | 3.2 | 4.8 | 0.00 | 0.00 | 0.00 | 96 | 1011.4 |
| 20260905123106 | 23 | 25 | 0.0 | 1.6 | 0.00 | 0.00 | 0.00 | 96 | 1011.5 |
| 20260905121533 | 23 | 24 | 0.0 | 0.0 | 0.00 | 0.00 | 0.00 | 97 | 1011.2 |
| 20260905120055 | 23 | 25 | 0.0 | 0.0 | 0.00 | 0.00 | 0.00 | 96 | 1011.2 |
| 20260905114520 | 23 | 24 | 0.0 | 0.0 | 0.00 | 0.00 | 0.00 | 96 | 1011.0 |
| 20260905113104 | 23 | 25 | 0.0 | 1.6 | 0.00 | 0.00 | 0.00 | 96 | 1011.2 |
| 20260905111513 | 23 | 19 | 0.0 | 1.6 | 0.00 | 0.00 | 0.00 | 96 | 1011.0 |
| 20260905110037 | 23 | 11 | 0.0 | 3.2 | 0.00 | 0.00 | 0.00 | 96 | 1010.7 |
| 20260905104504 | 23 | 11 | 0.0 | 3.2 | 0.00 | 0.00 | 0.00 | 95 | 1010.7 |
| 20260905103044 | 23 | 355 | 0.0 | 3.2 | 0.00 | 0.00 | 0.00 | 95 | 1010.8 |
| 20260905101512 | 23 | 231 | 0.0 | 1.6 | 0.00 | 0.00 | 0.00 | 95 | 1010.9 |
| 20260905100040 | 23 | 231 | 0.0 | 1.6 | 0.00 | 0.00 | 0.00 | 95 | 1010.8 |
| 20260905094548 | 23 | 231 | 0.0 | 1.6 | 0.00 | 0.00 | 0.00 | 95 | 1010.7 |
| 20260905093026 | 23 | 231 | 0.0 | 0.0 | 0.00 | 0.00 | 0.00 | 95 | 1010.7 |
| 20260905091537 | 23 | 231 | 0.0 | 1.6 | 0.00 | 0.00 | 0.00 | 95 | 1010.8 |
| 20260905084521 | 23 | 231 | 0.0 | 3.2 | 0.00 | 0.00 | 0.00 | 94 | 1010.8 |
| 20260905083045 | 23 | 231 | 0.0 | 1.6 | 0.00 | 0.00 | 0.00 | 94 | 1010.8 |
| 20260905081522 | 23 | 231 | 0.0 | 1.6 | 0.00 | 0.00 | 0.00 | 94 | 1010.9 |
| 20260905080043 | 23 | 221 | 0.0 | 1.6 | 0.00 | 0.00 | 0.00 | 93 | 1010.8 |
| 20260905074559 | 23 | 221 | 0.0 | 1.6 | 0.00 | 0.00 | 0.00 | 93 | 1010.8 |
| 20260905074502 | 23 | 221 | 0.0 | 1.6 | 0.00 | 0.00 | 0.00 | 93 | 1010.8 |
| 20260905073033 | 24 | 221 | 0.0 | 0.0 | 0.00 | 0.00 | 0.00 | 93 | 1010.8 |
| 20260905071547 | 24 | 221 | 0.0 | 0.0 | 0.00 | 0.00 | 0.00 | 93 | 1010.8 |
| 20260905070108 | 24 | 221 | 0.0 | 3.2 | 0.00 | 0.00 | 0.00 | 92 | 1010.9 |
| 20260905064531 | 25 | 221 | 0.0 | 6.4 | 0.00 | 0.00 | 0.00 | 92 | 1010.9 |
| 20260905063048 | 25 | 233 | 0.0 | 6.4 | 0.00 | 0.00 | 0.00 | 92 | 1011.1 |
| 20260905061509 | 25 | 212 | 0.0 | 3.2 | 0.00 | 0.00 | 0.00 | 92 | 1011.1 |
| 20260905060037 | 25 | 227 | 1.6 | 3.2 | 0.00 | 0.00 | 0.00 | 92 | 1011.2 |
| 20260905054503 | 25 | 211 | 1.6 | 6.4 | 0.00 | 0.00 | 0.00 | 91 | 1011.1 |
| 20260905053029 | 25 | 233 | 0.0 | 3.2 | 0.00 | 0.00 | 0.00 | 91 | 1011.2 |
| 20260905051555 | 25 | 233 | 0.0 | 3.2 | 0.00 | 0.00 | 0.00 | 90 | 1011.4 |
| 20260905050012 | 26 | 233 | 0.0 | 1.6 | 0.00 | 0.00 | 0.00 | 90 | 1011.4 |
| 20260905044531 | 26 | 233 | 0.0 | 3.2 | 0.00 | 0.00 | 0.00 | 90 | 1011.4 |
| 20260905043057 | 26 | 233 | 0.0 | 3.2 | 0.00 | 0.00 | 0.00 | 91 | 1011.6 |
| 20260905041517 | 26 | 232 | 3.2 | 6.4 | 0.00 | 0.00 | 0.00 | 92 | 1011.5 |
| 20260905040055 | 26 | 238 | 0.0 | 3.2 | 0.00 | 0.00 | 0.00 | 93 | 1011.8 |
| 20260905034517 | 26 | 249 | 1.6 | 3.2 | 0.00 | 0.00 | 0.00 | 93 | 1011.6 |
| 20260905033039 | 26 | 249 | 0.0 | 3.2 | 0.00 | 0.00 | 0.00 | 93 | 1011.8 |
| 20260905031506 | 26 | 249 | 0.0 | 1.6 | 0.00 | 0.00 | 0.00 | 91 | 1011.7 |
| 20260905030031 | 26 | 249 | 0.0 | 0.0 | 0.00 | 0.00 | 0.00 | 90 | 1011.6 |
| 20260905024547 | 26 | 249 | 0.0 | 1.6 | 0.00 | 0.00 | 0.00 | 89 | 1011.5 |
| 20260905023005 | 27 | 249 | 0.0 | 0.0 | 0.00 | 0.00 | 0.00 | 88 | 1011.3 |